Location: Newark
(39.6867°N, 100.6772°W)
Time: 19:22:59
(UTC+00:00)

Vanguard 2 - Visible Passes

Search period start: 22 October 2019 00:00
Search period end: 01 November 2019 00:00
Orbit: 554 x 2937 km, 32.9° (Epoch: 22 October)

Date Brightness Start Highest point End Pass type
(mag) Time Alt. Az. Time Alt. Az. Time Alt. Az.
22 Oct 9.5 01:04:55 10° WSW 01:13:01 57° SSE 01:22:12 21° E visible
22 Oct 9.7 03:12:45 10° W 03:23:24 62° S 03:23:35 62° S visible
22 Oct 11.2 05:22:03 10° W 05:24:58 20° W 05:24:58 20° W visible
23 Oct 9.4 01:22:40 10° WSW 01:30:55 60° S 01:38:47 27° ESE visible
23 Oct 9.9 03:30:42 10° W 03:40:10 56° SSW 03:40:10 56° SSW visible
23 Oct 11.4 05:40:23 10° W 05:41:33 14° W 05:41:33 14° W visible
24 Oct 9.4 01:40:28 10° WSW 01:48:52 61° S 01:55:23 33° ESE visible
24 Oct 10.1 03:48:42 10° W 03:56:46 47° SW 03:56:46 47° SW visible
25 Oct 9.5 01:58:20 10° W 02:06:51 60° S 02:12:01 39° SE visible
25 Oct 10.4 04:06:48 10° W 04:13:25 37° WSW 04:13:25 37° WSW visible
26 Oct 9.2 00:08:48 10° WSW 00:15:16 53° SSE 00:26:06 10° E visible
26 Oct 9.6 02:16:14 10° W 02:24:51 56° S 02:28:42 43° SE visible
26 Oct 10.7 04:25:00 10° W 04:30:06 28° WSW 04:30:06 28° WSW visible
27 Oct 9.2 00:26:33 10° WSW 00:33:09 56° S 00:44:03 11° E visible
27 Oct 9.7 02:34:10 10° W 02:42:50 51° SSW 02:45:27 45° SSE visible
27 Oct 11.0 04:43:24 10° W 04:46:51 21° WSW 04:46:51 21° WSW visible
28 Oct 9.2 00:44:21 10° WSW 00:51:04 56° S 01:00:50 14° ESE visible
28 Oct 9.9 02:52:12 10° W 03:00:50 45° SSW 03:02:14 43° S visible
28 Oct 11.3 05:02:10 10° WSW 05:03:39 14° WSW 05:03:39 14° WSW visible
29 Oct 9.3 01:02:12 10° W 01:09:01 53° S 01:17:42 17° ESE visible
29 Oct 10.1 03:10:19 10° W 03:18:50 38° SSW 03:19:06 38° SSW visible
30 Oct 9.4 01:20:07 10° W 01:26:59 48° S 01:34:38 20° SE visible
30 Oct 10.4 03:28:37 10° W 03:36:03 30° SSW 03:36:03 30° SSW visible
31 Oct 9.6 01:38:05 10° W 01:44:57 42° SSW 01:51:40 22° SE visible
31 Oct 10.7 03:47:14 10° WSW 03:53:05 23° SW 03:53:05 23° SW visible
